2022/07/13 23:28:07+0000,-39.62,-25.61,-29.22,-37.70,-42.57,-35.69
2022/07/13 23:28:59+0000,-39.18,-26.50,-28.71,-34.56,-43.23,-35.62
2022/07/13 23:29:52+0000,-39.99,-26.14,-29.26,-36.97,-42.27,-35.58
2022/07/13 23:30:44+0000,-39.95,-26.38,-29.15,-33.59,-43.09,-33.22
2022/07/13 23:31:45+0000,-39.08,-25.52,-29.50,-38.57,-42.48,-34.16
2022/07/13 23:32:37+0000,-39.13,-25.34,-28.67,-38.09,-42.34,-34.43
2022/07/13 23:33:29+0000,-38.72,-26.14,-28.23,-37.77,-42.25,-34.53
2022/07/13 23:34:21+0000,-38.45,-24.89,-29.01,-37.35,-43.43,-35.74
2022/07/13 23:35:13+0000,-38.86,-26.52,-29.62,-36.86,-43.02,-34.54
2022/07/13 23:36:05+0000,-39.33,-26.68,-28.65,-38.19,-42.29,-35.56
2022/07/13 23:36:57+0000,-39.52,-26.39,-29.57,-39.00,-41.84,-35.88
2022/07/13 23:37:49+0000,-39.89,-24.94,-29.58,-39.97,-42.84,-34.25
2022/07/13 23:38:41+0000,-38.10,-25.68,-29.81,-38.99,-42.10,-34.95
2022/07/13 23:39:33+0000,-39.29,-25.90,-28.42,-42.56,-42.50,-33.77
2022/07/13 23:40:26+0000,-38.11,-25.53,-29.58,-39.95,-41.88,-34.17
2022/07/13 23:41:26+0000,-39.88,-25.76,-29.76,-41.04,-41.42,-34.04
2022/07/13 23:42:18+0000,-39.46,-26.08,-29.08,-42.82,-42.94,-33.75
2022/07/13 23:43:10+0000,-38.37,-26.17,-29.50,-36.15,-42.60,-36.03
2022/07/13 23:44:02+0000,-38.80,-25.57,-29.64,-43.70,-41.83,-35.67
2022/07/13 23:44:55+0000,-39.95,-25.59,-29.17,-40.99,-41.88,-34.64
2022/07/13 23:45:47+0000,-38.38,-26.45,-29.25,-36.23,-42.10,-35.58
2022/07/13 23:46:39+0000,-38.60,-25.36,-29.62,-37.46,-42.00,-36.04
2022/07/13 23:47:31+0000,-38.82,-25.43,-29.01,-36.09,-41.80,-37.47
2022/07/13 23:48:23+0000,-40.29,-25.28,-27.68,-36.26,-41.60,-37.38
2022/07/13 23:49:15+0000,-38.99,-25.64,-28.57,-30.55,-42.20,-37.43
2022/07/13 23:50:07+0000,-39.32,-26.27,-28.06,-31.32,-40.86,-37.50
2022/07/13 23:51:09+0000,-38.71,-26.95,-28.73,-33.30,-41.86,-36.57
2022/07/13 23:52:01+0000,-39.84,-26.78,-29.10,-35.71,-41.77,-35.27
2022/07/13 23:52:53+0000,-40.12,-25.64,-28.20,-34.59,-40.32,-36.95
2022/07/13 23:53:45+0000,-38.34,-25.41,-27.88,-36.67,-41.86,-36.89
2022/07/13 23:54:37+0000,-39.88,-26.45,-26.79,-36.83,-39.73,-37.70
2022/07/13 23:55:29+0000,-38.73,-25.85,-29.35,-35.67,-39.16,-36.23
2022/07/13 23:56:21+0000,-38.15,-25.53,-28.33,-36.62,-42.77,-35.48
2022/07/13 23:57:13+0000,-40.21,-26.19,-27.87,-37.26,-43.15,-36.90
2022/07/13 23:58:05+0000,-38.16,-25.99,-29.54,-36.28,-42.36,-35.01
2022/07/13 23:58:57+0000,-39.14,-27.22,-29.16,-34.84,-41.58,-36.99
2022/07/13 23:59:50+0000,-39.20,-26.18,-28.84,-37.75,-42.04,-35.05
2022/07/14 00:00:46+0000,-39.44,-25.23,-28.27,-35.75,-41.88,-37.69
2022/07/14 00:01:48+0000,-39.26,-25.74,-28.43,-43.48,-42.50,-33.66
2022/07/14 00:02:40+0000,-39.03,-25.38,-29.11,-36.08,-41.67,-34.36
2022/07/14 00:03:32+0000,-39.51,-26.06,-29.38,-38.79,-42.77,-36.99
2022/07/14 00:04:24+0000,-39.54,-26.48,-28.06,-35.75,-41.63,-35.43
2022/07/14 00:05:16+0000,-40.19,-25.09,-28.87,-37.52,-43.13,-37.86
2022/07/14 00:06:08+0000,-38.72,-25.74,-29.17,-35.68,-42.65,-35.63
2022/07/14 00:07:00+0000,-40.32,-25.33,-28.77,-32.81,-42.29,-35.95
2022/07/14 00:07:52+0000,-39.72,-26.59,-28.58,-34.13,-42.04,-35.24
2022/07/14 00:08:44+0000,-39.80,-26.29,-29.00,-35.15,-42.33,-35.74
2022/07/14 00:09:36+0000,-39.13,-26.66,-28.20,-30.38,-42.48,-35.01
2022/07/14 00:10:29+0000,-39.51,-25.50,-29.09,-34.81,-42.82,-34.58
2022/07/14 00:11:29+0000,-39.80,-26.17,-28.23,-36.67,-41.61,-35.57
2022/07/14 00:12:21+0000,-39.02,-25.68,-27.94,-34.38,-42.45,-34.91
2022/07/14 00:13:13+0000,-40.32,-26.43,-28.58,-37.92,-42.65,-34.33
2022/07/14 00:14:06+0000,-40.66,-25.10,-29.17,-36.49,-42.41,-36.11
2022/07/14 00:14:58+0000,-38.44,-25.02,-29.52,-32.31,-42.27,-34.27
2022/07/14 00:15:50+0000,-38.85,-26.57,-27.61,-34.94,-42.25,-35.92
2022/07/14 00:16:42+0000,-38.57,-25.55,-29.51,-35.13,-43.19,-36.96
2022/07/14 00:17:34+0000,-38.97,-21.99,-28.40,-38.19,-42.55,-34.96
2022/07/14 00:18:26+0000,-38.90,-25.88,-29.86,-35.25,-42.42,-34.62
2022/07/14 00:19:18+0000,-38.71,-26.11,-29.57,-43.34,-41.91,-33.47
2022/07/14 00:20:10+0000,-40.18,-26.04,-29.05,-36.35,-42.55,-35.89
2022/07/14 00:21:11+0000,-40.04,-25.02,-29.45,-34.73,-41.61,-33.35
2022/07/14 00:22:03+0000,-39.39,-25.86,-28.23,-42.63,-42.13,-35.22
2022/07/14 00:22:55+0000,-39.18,-25.87,-28.18,-35.21,-42.44,-35.66
2022/07/14 00:23:47+0000,-40.63,-25.76,-27.30,-40.71,-41.71,-35.45
2022/07/14 00:24:39+0000,-40.10,-25.48,-29.40,-33.54,-43.11,-35.58
2022/07/14 00:25:31+0000,-40.93,-26.23,-29.15,-35.07,-40.80,-36.46
2022/07/14 00:26:23+0000,-40.49,-26.66,-28.76,-33.96,-42.13,-33.76
2022/07/14 00:27:15+0000,-40.59,-25.21,-27.70,-35.35,-42.13,-35.06
2022/07/14 00:28:07+0000,-39.42,-26.12,-29.07,-34.45,-42.15,-33.97
2022/07/14 00:28:59+0000,-39.79,-25.19,-29.32,-34.27,-42.73,-33.44
2022/07/14 00:29:52+0000,-38.77,-26.13,-28.08,-36.68,-41.63,-35.30
2022/07/14 00:30:44+0000,-39.12,-26.13,-28.17,-36.50,-42.69,-34.92
2022/07/14 00:31:45+0000,-39.23,-26.24,-28.22,-34.96,-41.94,-34.33
2022/07/14 00:32:37+0000,-39.31,-24.83,-29.03,-36.80,-42.19,-35.05
2022/07/14 00:33:29+0000,-38.28,-26.07,-29.34,-36.13,-41.72,-36.18
2022/07/14 00:34:21+0000,-38.75,-26.09,-28.25,-36.67,-42.58,-36.27
2022/07/14 00:35:13+0000,-38.24,-25.79,-29.09,-36.55,-41.76,-34.45
2022/07/14 00:36:05+0000,-39.29,-26.02,-29.34,-35.59,-42.33,-34.21
2022/07/14 00:36:57+0000,-39.63,-26.01,-29.12,-36.17,-41.34,-33.86
2022/07/14 00:37:49+0000,-38.77,-25.86,-28.81,-36.64,-42.03,-36.14
2022/07/14 00:38:41+0000,-38.71,-25.84,-28.93,-37.92,-41.99,-36.26
2022/07/14 00:39:33+0000,-37.76,-25.42,-28.72,-41.68,-42.01,-35.18
2022/07/14 00:40:26+0000,-39.18,-25.82,-29.67,-37.01,-42.81,-34.50
2022/07/14 00:41:27+0000,-38.95,-26.27,-28.91,-34.97,-42.69,-34.44
2022/07/14 00:42:19+0000,-39.78,-25.33,-27.95,-41.17,-41.89,-34.36
2022/07/14 00:43:11+0000,-39.74,-26.25,-29.98,-31.25,-43.11,-35.16
2022/07/14 00:44:03+0000,-39.10,-25.66,-28.46,-42.71,-42.82,-36.18
2022/07/14 00:44:55+0000,-39.07,-25.97,-28.68,-36.09,-42.55,-35.70
2022/07/14 00:45:47+0000,-39.39,-27.12,-29.10,-40.36,-42.30,-37.00
2022/07/14 00:46:39+0000,-38.51,-24.84,-29.11,-34.43,-43.21,-34.81
2022/07/14 00:47:31+0000,-40.21,-25.74,-27.99,-36.94,-42.51,-35.78
2022/07/14 00:48:23+0000,-38.72,-25.22,-27.84,-35.79,-42.60,-35.90
2022/07/14 00:49:15+0000,-39.36,-25.14,-29.31,-33.52,-42.74,-36.61
2022/07/14 00:50:07+0000,-38.15,-24.96,-27.87,-36.21,-43.32,-34.71
2022/07/14 00:51:08+0000,-39.65,-25.09,-29.13,-36.38,-41.85,-36.28
2022/07/14 00:52:00+0000,-38.46,-24.60,-29.08,-34.75,-42.18,-34.55
2022/07/14 00:52:52+0000,-38.42,-25.90,-27.75,-35.47,-43.18,-37.07
2022/07/14 00:53:44+0000,-38.50,-25.49,-28.35,-34.91,-41.63,-35.80
2022/07/14 00:54:36+0000,-38.79,-25.69,-29.59,-37.15,-41.98,-36.64
2022/07/14 00:55:28+0000,-40.00,-25.98,-28.56,-35.38,-43.38,-35.77
2022/07/14 00:56:20+0000,-39.25,-26.12,-29.24,-36.79,-43.15,-36.86
2022/07/14 00:57:12+0000,-39.36,-25.58,-30.27,-37.23,-41.89,-34.67
2022/07/14 00:58:04+0000,-39.10,-25.39,-30.54,-36.99,-41.93,-35.30
2022/07/14 00:58:57+0000,-38.44,-24.98,-30.72,-36.63,-43.20,-35.47
2022/07/14 00:59:49+0000,-39.67,-25.28,-28.18,-42.72,-40.74,-35.88
2022/07/14 01:00:41+0000,-38.12,-26.47,-29.56,-38.42,-42.27,-34.41
2022/07/14 01:01:42+0000,-37.58,-25.06,-30.24,-36.54,-42.81,-35.15
2022/07/14 01:02:34+0000,-37.80,-25.30,-29.91,-36.78,-42.42,-34.91
2022/07/14 01:03:27+0000,-37.99,-25.71,-29.21,-37.02,-44.16,-35.39
2022/07/14 01:04:19+0000,-39.14,-27.29,-28.21,-43.09,-45.87,-35.79
2022/07/14 01:05:11+0000,-40.48,-27.01,-30.04,-37.04,-46.88,-36.20
2022/07/14 01:06:03+0000,-38.19,-27.44,-28.96,-43.02,-45.52,-36.00
2022/07/14 01:06:55+0000,-39.67,-27.68,-29.34,-36.51,-46.68,-37.06
2022/07/14 01:07:47+0000,-40.83,-26.66,-28.01,-38.96,-46.60,-36.94
2022/07/14 01:08:39+0000,-37.95,-27.55,-28.69,-35.75,-47.12,-34.88
2022/07/14 01:09:31+0000,-38.93,-27.63,-27.80,-31.82,-45.21,-35.23
2022/07/14 01:10:23+0000,-40.96,-26.97,-27.24,-36.99,-46.49,-33.33
2022/07/14 01:11:24+0000,-39.58,-27.28,-28.07,-35.87,-46.99,-35.35
2022/07/14 01:12:16+0000,-40.02,-26.93,-29.22,-33.97,-45.88,-37.56
2022/07/14 01:13:08+0000,-40.86,-27.61,-28.62,-34.86,-46.18,-37.14
2022/07/14 01:14:00+0000,-38.69,-27.14,-27.50,-35.84,-45.92,-34.40
2022/07/14 01:14:52+0000,-39.51,-27.28,-27.72,-37.32,-46.42,-36.69
2022/07/14 01:15:44+0000,-40.62,-28.31,-29.30,-35.55,-43.95,-36.02
2022/07/14 01:16:36+0000,-39.57,-28.63,-28.23,-37.80,-45.12,-34.66
2022/07/14 01:17:28+0000,-40.02,-27.77,-28.34,-36.89,-46.42,-37.37
2022/07/14 01:18:20+0000,-40.08,-27.21,-29.52,-37.03,-45.83,-37.66
2022/07/14 01:19:13+0000,-38.95,-26.68,-30.10,-35.52,-45.53,-37.06
2022/07/14 01:20:05+0000,-39.52,-27.53,-29.18,-36.35,-44.97,-37.37
2022/07/14 01:21:06+0000,-40.44,-27.56,-28.62,-35.50,-45.40,-36.22
2022/07/14 01:21:58+0000,-39.94,-25.88,-28.98,-32.76,-43.59,-37.26
2022/07/14 01:22:50+0000,-39.76,-26.91,-28.74,-37.52,-45.27,-35.35
2022/07/14 01:23:42+0000,-40.42,-26.40,-30.07,-35.13,-44.92,-34.60
2022/07/14 01:24:34+0000,-40.59,-27.55,-27.16,-36.34,-45.55,-35.27
2022/07/14 01:25:27+0000,-40.59,-26.74,-30.23,-33.20,-45.65,-36.93
2022/07/14 01:26:19+0000,-40.25,-26.66,-28.13,-44.28,-45.69,-36.47
2022/07/14 01:27:11+0000,-40.72,-26.91,-29.22,-35.68,-45.51,-36.89
2022/07/14 01:28:03+0000,-40.43,-25.62,-27.79,-42.82,-45.83,-36.20
2022/07/14 01:28:55+0000,-39.72,-26.84,-27.93,-37.28,-46.28,-36.40
2022/07/14 01:29:47+0000,-39.90,-25.90,-27.10,-43.05,-45.63,-35.17
2022/07/14 01:30:39+0000,-40.64,-25.03,-28.35,-37.58,-46.42,-35.65
2022/07/14 01:31:40+0000,-40.37,-26.54,-27.97,-36.26,-45.73,-36.86
2022/07/14 01:32:32+0000,-39.96,-23.20,-27.36,-39.02,-45.63,-36.38
2022/07/14 01:33:24+0000,-37.87,-23.87,-24.35,-35.97,-46.43,-37.83
2022/07/14 01:34:16+0000,-39.20,-27.10,-28.19,-37.25,-44.33,-36.35
2022/07/14 01:35:08+0000,-40.04,-26.44,-28.61,-36.42,-45.53,-36.45
2022/07/14 01:36:00+0000,-39.48,-23.55,-28.07,-37.46,-45.29,-35.46
2022/07/14 01:36:52+0000,-40.71,-26.02,-26.70,-36.26,-45.85,-35.55
2022/07/14 01:37:44+0000,-40.10,-26.27,-27.91,-35.70,-44.66,-35.15
2022/07/14 01:38:36+0000,-39.17,-26.90,-27.42,-32.31,-44.70,-34.97
2022/07/14 01:39:28+0000,-40.61,-26.84,-27.20,-37.88,-44.53,-34.61
2022/07/14 01:40:21+0000,-39.09,-27.54,-27.13,-36.01,-44.64,-34.49
2022/07/14 01:41:22+0000,-39.66,-26.24,-26.43,-37.57,-46.16,-36.30
2022/07/14 01:42:14+0000,-39.33,-26.66,-27.02,-33.59,-44.89,-34.50
2022/07/14 01:43:06+0000,-39.18,-27.47,-26.50,-34.58,-46.83,-33.79
2022/07/14 01:43:58+0000,-39.23,-25.91,-30.06,-34.96,-45.92,-34.76
2022/07/14 01:44:50+0000,-40.86,-28.40,-26.50,-37.66,-46.13,-37.41
2022/07/14 01:45:42+0000,-39.85,-26.64,-29.76,-35.58,-45.02,-35.00
2022/07/14 01:46:34+0000,-40.50,-26.18,-28.43,-44.08,-45.30,-36.25
2022/07/14 01:47:26+0000,-40.67,-24.54,-28.88,-37.60,-46.43,-36.70
2022/07/14 01:48:18+0000,-38.77,-25.92,-26.21,-41.90,-45.83,-36.06
2022/07/14 01:49:10+0000,-40.46,-27.07,-27.48,-35.89,-45.33,-34.89
2022/07/14 01:50:02+0000,-40.48,-25.32,-26.46,-43.48,-45.50,-36.25
2022/07/14 01:51:03+0000,-40.10,-26.60,-28.27,-42.19,-46.16,-37.14
2022/07/14 01:51:55+0000,-39.97,-25.44,-27.57,-36.80,-46.08,-36.33
2022/07/14 01:52:47+0000,-39.50,-24.48,-27.59,-40.96,-45.73,-36.42
2022/07/14 01:53:39+0000,-40.30,-21.89,-27.06,-36.53,-46.12,-34.92
2022/07/14 01:54:31+0000,-40.61,-24.71,-26.01,-33.77,-45.65,-35.17
2022/07/14 01:55:23+0000,-41.10,-24.60,-26.81,-35.02,-44.74,-35.46
2022/07/14 01:56:15+0000,-40.29,-25.61,-24.72,-34.63,-44.55,-33.89
2022/07/14 01:57:07+0000,-39.82,-25.36,-26.64,-33.04,-45.55,-36.85
2022/07/14 01:57:59+0000,-40.28,-23.90,-28.35,-35.85,-45.60,-34.56
2022/07/14 01:58:51+0000,-40.92,-27.64,-28.35,-34.75,-44.10,-34.00
2022/07/14 01:59:44+0000,-39.95,-26.01,-22.89,-33.48,-45.03,-35.97
2022/07/14 02:00:36+0000,-40.65,-24.48,-26.97,-34.06,-45.43,-36.94
2022/07/14 02:01:36+0000,-40.77,-27.88,-28.58,-32.87,-44.06,-35.93
2022/07/14 02:02:28+0000,-39.92,-24.97,-28.72,-35.21,-45.34,-35.69
2022/07/14 02:03:20+0000,-40.63,-26.83,-28.63,-37.50,-42.40,-34.68
2022/07/14 02:04:12+0000,-40.66,-24.97,-29.60,-33.12,-43.11,-37.56
2022/07/14 02:05:05+0000,-40.91,-26.60,-28.24,-34.14,-39.44,-35.76
2022/07/14 02:05:57+0000,-39.70,-25.44,-29.28,-35.60,-43.20,-35.31
2022/07/14 02:06:49+0000,-39.82,-25.82,-29.01,-41.53,-43.02,-35.51
2022/07/14 02:07:41+0000,-39.62,-26.12,-29.91,-31.81,-41.34,-35.20
2022/07/14 02:08:33+0000,-38.56,-24.22,-28.06,-41.41,-41.58,-34.47
2022/07/14 02:09:25+0000,-39.35,-20.91,-28.83,-35.55,-41.72,-35.51
2022/07/14 02:10:17+0000,-38.70,-24.24,-27.68,-39.72,-42.59,-36.84
2022/07/14 02:11:18+0000,-40.44,-25.23,-26.99,-41.96,-43.20,-34.87
2022/07/14 02:12:10+0000,-38.82,-22.92,-28.94,-33.39,-43.85,-35.75
2022/07/14 02:13:02+0000,-39.12,-24.09,-25.85,-41.23,-41.72,-36.00
2022/07/14 02:13:54+0000,-40.25,-21.45,-26.95,-33.74,-43.68,-34.89
2022/07/14 02:14:46+0000,-39.76,-22.73,-27.23,-30.79,-41.47,-36.91
2022/07/14 02:15:38+0000,-40.04,-24.79,-29.31,-32.71,-42.49,-34.67
2022/07/14 02:16:30+0000,-39.37,-22.22,-27.49,-32.30,-41.60,-35.29
2022/07/14 02:17:22+0000,-38.90,-22.29,-27.81,-32.81,-34.90,-36.09
2022/07/14 02:18:14+0000,-39.76,-24.00,-28.65,-31.23,-42.91,-36.47
2022/07/14 02:19:06+0000,-38.67,-25.21,-29.13,-31.82,-42.49,-37.19
2022/07/14 02:19:59+0000,-39.91,-24.34,-27.37,-33.28,-42.56,-37.37
2022/07/14 02:20:51+0000,-39.87,-25.41,-26.98,-32.31,-41.60,-37.16
2022/07/14 02:21:52+0000,-38.70,-23.35,-28.77,-32.66,-42.60,-36.07
2022/07/14 02:22:44+0000,-40.66,-22.44,-28.10,-31.54,-42.63,-36.19
2022/07/14 02:23:36+0000,-38.52,-24.28,-27.75,-32.90,-42.44,-35.84
2022/07/14 02:24:28+0000,-38.43,-23.60,-29.27,-31.93,-43.48,-35.59
2022/07/14 02:25:20+0000,-39.58,-24.57,-28.18,-33.08,-41.78,-36.09
2022/07/14 02:26:12+0000,-39.73,-20.25,-30.50,-30.28,-43.36,-37.00
2022/07/14 02:27:05+0000,-39.88,-23.44,-28.25,-32.70,-43.38,-35.29
2022/07/14 02:27:57+0000,-40.21,-24.30,-28.36,-34.19,-42.78,-36.90
2022/07/14 02:28:49+0000,-38.72,-18.91,-27.32,-41.33,-43.15,-34.50
2022/07/14 02:29:41+0000,-38.68,-24.48,-29.10,-31.00,-43.20,-34.91
2022/07/14 02:30:33+0000,-38.39,-23.59,-28.34,-42.38,-40.73,-36.05
2022/07/14 02:31:34+0000,-38.28,-23.80,-28.77,-41.01,-40.05,-34.83
2022/07/14 02:32:26+0000,-40.08,-22.93,-30.49,-33.39,-42.54,-36.91
2022/07/14 02:33:18+0000,-40.52,-21.99,-27.53,-38.63,-42.98,-37.58
2022/07/14 02:34:10+0000,-39.85,-25.23,-27.75,-31.82,-42.84,-36.31
2022/07/14 02:35:02+0000,-39.67,-21.96,-27.87,-36.48,-40.81,-34.73
2022/07/14 02:35:54+0000,-40.24,-22.81,-23.60,-31.97,-42.83,-34.93
2022/07/14 02:36:46+0000,-39.74,-22.96,-27.54,-31.98,-43.00,-35.00
2022/07/14 02:37:38+0000,-38.55,-23.21,-25.64,-32.15,-40.02,-36.56
2022/07/14 02:38:30+0000,-38.31,-21.61,-28.51,-33.72,-39.48,-34.99
2022/07/14 02:39:22+0000,-39.41,-22.19,-26.61,-31.11,-40.60,-36.52
2022/07/14 02:40:15+0000,-38.18,-24.05,-26.71,-31.26,-41.70,-36.32
2022/07/14 02:41:15+0000,-39.76,-23.64,-27.22,-31.12,-42.43,-34.76
2022/07/14 02:42:07+0000,-39.43,-23.76,-28.65,-33.67,-42.26,-35.38
2022/07/14 02:42:59+0000,-40.37,-22.68,-28.25,-32.25,-42.49,-36.13
2022/07/14 02:43:51+0000,-39.51,-26.01,-23.80,-33.89,-41.92,-34.72
2022/07/14 02:44:43+0000,-39.19,-23.57,-24.67,-33.32,-39.50,-37.06
2022/07/14 02:45:35+0000,-39.91,-25.21,-28.30,-33.66,-40.55,-34.82
2022/07/14 02:46:27+0000,-35.94,-23.47,-29.38,-30.53,-40.08,-37.30
2022/07/14 02:47:19+0000,-37.71,-24.63,-27.68,-31.16,-40.68,-35.55
2022/07/14 02:48:12+0000,-38.14,-23.07,-29.77,-35.92,-40.43,-36.58
2022/07/14 02:49:04+0000,-37.07,-22.95,-24.68,-41.90,-34.58,-37.57
2022/07/14 02:49:56+0000,-37.86,-24.30,-29.65,-24.34,-39.08,-36.46
2022/07/14 02:50:48+0000,-39.32,-21.65,-29.54,-41.50,-41.42,-36.06
2022/07/14 02:51:49+0000,-38.84,-21.09,-26.80,-40.32,-41.72,-35.47
2022/07/14 02:52:41+0000,-35.39,-24.10,-30.02,-30.38,-41.95,-35.10
2022/07/14 02:53:33+0000,-35.89,-21.78,-26.20,-42.57,-41.81,-36.77
2022/07/14 02:54:25+0000,-38.68,-20.65,-28.63,-33.86,-43.23,-36.75
2022/07/14 02:55:17+0000,-40.50,-22.09,-27.12,-40.61,-41.57,-36.58
2022/07/14 02:56:10+0000,-38.20,-20.82,-26.55,-31.78,-42.02,-35.32
2022/07/14 02:57:02+0000,-37.00,-21.08,-27.71,-34.46,-40.65,-35.88
2022/07/14 02:57:54+0000,-35.50,-23.06,-24.91,-31.93,-42.06,-37.25
2022/07/14 02:58:46+0000,-38.96,-22.18,-27.93,-31.00,-42.57,-36.33
2022/07/14 02:59:38+0000,-39.64,-20.13,-29.80,-33.76,-40.61,-37.07
2022/07/14 03:00:30+0000,-40.59,-19.91,-28.95,-31.25,-37.93,-36.14
2022/07/14 03:01:30+0000,-37.29,-20.94,-28.05,-30.58,-39.77,-35.49
2022/07/14 03:02:23+0000,-37.46,-23.91,-26.72,-29.87,-39.82,-36.84
2022/07/14 03:03:15+0000,-39.81,-20.40,-28.19,-35.66,-41.03,-35.39
2022/07/14 03:04:07+0000,-39.26,-23.13,-28.48,-35.13,-39.22,-37.85
2022/07/14 03:04:59+0000,-39.44,-24.01,-28.36,-29.15,-39.44,-36.75
2022/07/14 03:05:51+0000,-36.67,-23.35,-28.89,-29.01,-40.04,-35.61
2022/07/14 03:06:43+0000,-37.64,-22.75,-27.73,-35.89,-39.52,-34.45
2022/07/14 03:07:35+0000,-35.23,-24.95,-27.77,-36.27,-37.99,-36.39
2022/07/14 03:08:27+0000,-38.66,-21.77,-30.30,-33.47,-38.14,-36.23
2022/07/14 03:09:19+0000,-39.34,-23.33,-25.36,-31.02,-41.01,-36.60
2022/07/14 03:10:12+0000,-35.91,-21.39,-31.57,-34.19,-42.11,-36.86
2022/07/14 03:11:14+0000,-39.34,-20.32,-25.02,-31.89,-42.19,-37.59
2022/07/14 03:12:06+0000,-37.42,-25.08,-24.52,-33.34,-40.08,-37.45
2022/07/14 03:12:58+0000,-40.31,-22.21,-26.86,-31.17,-42.88,-36.59
2022/07/14 03:13:50+0000,-39.17,-25.87,-26.74,-34.78,-44.52,-36.57
2022/07/14 03:14:42+0000,-35.13,-18.37,-29.59,-32.94,-44.94,-34.52
2022/07/14 03:15:34+0000,-36.05,-23.00,-27.17,-37.34,-41.86,-37.18
2022/07/14 03:16:26+0000,-38.73,-21.82,-28.24,-33.73,-41.52,-37.66
2022/07/14 03:17:18+0000,-37.78,-21.36,-27.77,-43.04,-44.94,-37.00
2022/07/14 03:18:11+0000,-38.75,-23.26,-29.89,-34.39,-45.52,-35.43
2022/07/14 03:19:03+0000,-38.51,-22.22,-25.55,-42.91,-42.13,-36.58
2022/07/14 03:19:55+0000,-40.23,-22.12,-27.54,-31.68,-46.39,-36.72
2022/07/14 03:20:47+0000,-39.00,-20.95,-27.60,-39.98,-45.34,-35.59
2022/07/14 03:21:47+0000,-39.03,-20.72,-27.14,-43.05,-42.90,-35.21
2022/07/14 03:22:40+0000,-38.84,-23.27,-25.48,-33.53,-45.16,-36.34
2022/07/14 03:23:32+0000,-38.83,-19.22,-27.86,-31.65,-45.51,-36.59
2022/07/14 03:24:24+0000,-37.57,-22.74,-27.32,-27.93,-46.42,-36.63
2022/07/14 03:25:16+0000,-38.97,-24.49,-26.99,-34.85,-44.47,-36.68
2022/07/14 03:26:08+0000,-37.08,-21.02,-25.70,-27.83,-44.04,-36.04
2022/07/14 03:27:00+0000,-39.44,-23.43,-26.63,-31.36,-41.99,-35.75
2022/07/14 03:27:52+0000,-35.20,-24.13,-22.45,-31.44,-45.49,-38.21
2022/07/14 03:28:44+0000,-38.87,-20.89,-24.78,-31.38,-46.02,-38.09
2022/07/14 03:29:36+0000,-35.36,-25.92,-28.29,-31.28,-40.12,-35.97
2022/07/14 03:30:28+0000,-40.47,-19.96,-28.89,-33.53,-42.39,-37.02
2022/07/14 03:31:29+0000,-41.63,-21.24,-26.82,-30.02,-43.09,-35.28
2022/07/14 03:32:21+0000,-36.63,-23.87,-25.66,-26.44,-42.79,-36.85
2022/07/14 03:33:14+0000,-39.88,-19.44,-24.18,-31.97,-41.37,-35.65
2022/07/14 03:34:06+0000,-40.02,-26.46,-27.32,-30.61,-41.17,-35.64
2022/07/14 03:34:58+0000,-38.57,-23.80,-27.76,-32.37,-45.23,-36.56
2022/07/14 03:35:50+0000,-38.92,-24.70,-26.65,-33.51,-43.33,-37.46
2022/07/14 03:36:42+0000,-38.32,-20.50,-31.11,-28.13,-44.61,-36.39
2022/07/14 03:37:34+0000,-39.61,-23.40,-27.05,-42.27,-40.19,-36.23
2022/07/14 03:38:26+0000,-35.16,-21.70,-28.35,-32.77,-40.18,-37.50
2022/07/14 03:39:18+0000,-39.05,-21.52,-22.84,-42.95,-45.59,-37.37
2022/07/14 03:40:10+0000,-38.88,-22.48,-27.68,-35.02,-43.82,-38.57
2022/07/14 03:41:11+0000,-40.64,-22.18,-29.67,-30.26,-40.98,-35.34
2022/07/14 03:42:03+0000,-40.63,-23.31,-25.91,-43.23,-40.20,-36.30
2022/07/14 03:42:55+0000,-39.55,-21.40,-24.19,-28.07,-45.04,-35.38
2022/07/14 03:43:47+0000,-38.85,-21.47,-23.49,-41.05,-38.13,-36.53
2022/07/14 03:44:39+0000,-38.97,-23.85,-26.31,-35.40,-46.34,-34.55
2022/07/14 03:45:31+0000,-38.86,-21.96,-27.53,-30.38,-35.39,-29.41
2022/07/14 03:46:24+0000,-36.07,-20.81,-23.04,-30.87,-44.99,-30.15
2022/07/14 03:47:16+0000,-37.10,-21.14,-24.72,-29.97,-39.99,-29.78
2022/07/14 03:48:08+0000,-37.08,-21.21,-25.72,-35.23,-44.61,-30.21
2022/07/14 03:49:00+0000,-37.28,-20.47,-26.77,-28.39,-38.17,-35.67
2022/07/14 03:49:53+0000,-39.78,-17.48,-23.67,-29.39,-43.08,-37.96
2022/07/14 03:50:45+0000,-39.28,-19.59,-22.72,-34.13,-37.27,-36.19
2022/07/14 03:51:46+0000,-40.15,-21.51,-24.72,-34.86,-38.19,-45.91
2022/07/14 03:52:38+0000,-37.32,-22.60,-26.54,-35.65,-43.64,-45.21
2022/07/14 03:53:30+0000,-40.31,-19.48,-27.59,-25.12,-47.58,-46.26
2022/07/14 03:54:22+0000,-39.52,-24.20,-26.42,-26.29,-38.22,-45.23
2022/07/14 03:55:14+0000,-39.72,-23.83,-26.30,-33.25,-45.28,-45.34
2022/07/14 03:56:06+0000,-36.87,-26.91,-27.51,-34.62,-47.52,-45.47
2022/07/14 03:56:58+0000,-38.47,-18.61,-28.85,-28.42,-47.87,-45.20
2022/07/14 03:57:50+0000,-39.40,-25.77,-25.74,-29.15,-38.58,-45.46
2022/07/14 03:58:42+0000,-39.86,-19.83,-29.62,-36.80,-46.21,-45.01
2022/07/14 03:59:34+0000,-39.24,-22.75,-26.69,-34.79,-45.32,-45.47
2022/07/14 04:00:27+0000,-39.29,-23.75,-30.06,-30.40,-44.83,-45.40
2022/07/14 04:01:28+0000,-39.03,-19.00,-28.51,-27.66,-35.91,-45.67
2022/07/14 04:02:20+0000,-38.63,-25.61,-24.93,-31.17,-45.46,-45.54
2022/07/14 04:03:12+0000,-39.84,-15.76,-29.10,-37.11,-46.55,-45.67
2022/07/14 04:04:04+0000,-40.03,-22.73,-27.58,-38.38,-48.01,-45.84
2022/07/14 04:04:56+0000,-39.55,-23.17,-25.85,-30.12,-48.75,-45.99
2022/07/14 04:05:48+0000,-39.14,-17.10,-27.23,-38.84,-46.92,-45.73
2022/07/14 04:06:40+0000,-35.34,-19.58,-28.94,-34.91,-47.64,-45.59
2022/07/14 04:07:32+0000,-40.18,-21.08,-27.94,-37.32,-36.25,-45.03
2022/07/14 04:08:24+0000,-39.40,-19.69,-25.90,-31.52,-38.44,-45.75
2022/07/14 04:09:16+0000,-40.09,-19.02,-24.72,-43.61,-46.95,-45.16
2022/07/14 04:10:09+0000,-30.53,-18.54,-29.04,-35.72,-42.17,-45.18
2022/07/14 04:11:11+0000,-38.53,-21.46,-29.79,-36.47,-47.70,-45.36
2022/07/14 04:12:03+0000,-37.67,-19.77,-28.11,-37.90,-47.97,-45.59
2022/07/14 04:12:55+0000,-37.62,-19.44,-22.79,-34.45,-48.02,-45.24
2022/07/14 04:13:47+0000,-39.41,-22.81,-27.07,-41.21,-45.58,-31.22
2022/07/14 04:14:39+0000,-37.55,-18.42,-27.47,-31.94,-46.68,-30.56
2022/07/14 04:15:31+0000,-36.64,-19.53,-28.41,-31.56,-44.79,-30.06
2022/07/14 04:16:23+0000,-37.04,-21.69,-23.66,-30.30,-46.30,-31.22
2022/07/14 04:17:15+0000,-38.38,-20.74,-26.25,-31.29,-46.23,-30.72
2022/07/14 04:18:07+0000,-37.71,-21.71,-27.99,-33.61,-45.55,-31.21
2022/07/14 04:18:59+0000,-37.86,-22.21,-28.21,-33.96,-45.47,-30.23
2022/07/14 04:19:52+0000,-36.89,-22.17,-26.54,-36.11,-47.54,-44.95
2022/07/14 04:20:44+0000,-37.69,-19.82,-26.72,-33.28,-47.65,-45.80
2022/07/14 04:21:45+0000,-40.35,-20.03,-26.12,-31.90,-47.15,-45.27
2022/07/14 04:22:37+0000,-40.00,-20.31,-26.57,-35.19,-39.64,-45.82
2022/07/14 04:23:29+0000,-41.16,-21.05,-27.00,-27.84,-48.06,-45.49
2022/07/14 04:24:21+0000,-40.82,-26.92,-23.98,-29.25,-45.76,-45.33
2022/07/14 04:25:13+0000,-39.06,-18.25,-24.89,-31.51,-47.00,-45.01
2022/07/14 04:26:05+0000,-38.38,-26.28,-27.01,-31.04,-46.80,-45.53
2022/07/14 04:26:57+0000,-38.68,-22.25,-29.90,-31.57,-43.37,-45.24
2022/07/14 04:27:49+0000,-38.50,-23.62,-21.31,-33.44,-47.93,-45.25
2022/07/14 04:28:41+0000,-39.64,-22.81,-29.89,-30.65,-48.19,-45.27
2022/07/14 04:29:33+0000,-40.31,-22.66,-28.59,-42.08,-48.65,-45.78
2022/07/14 04:30:26+0000,-39.70,-21.17,-29.28,-28.65,-48.16,-45.70
2022/07/14 04:31:27+0000,-38.16,-21.79,-30.40,-29.61,-47.53,-45.37
2022/07/14 04:32:19+0000,-39.63,-20.37,-24.22,-39.64,-47.23,-33.60
2022/07/14 04:33:11+0000,-39.47,-21.22,-29.34,-29.21,-47.79,-46.55
2022/07/14 04:34:03+0000,-39.59,-21.21,-27.88,-42.72,-48.33,-45.53
2022/07/14 04:34:55+0000,-37.96,-23.57,-24.23,-34.64,-49.24,-43.91
2022/07/14 04:35:47+0000,-37.98,-17.64,-22.71,-41.71,-48.56,-45.48
2022/07/14 04:36:39+0000,-38.73,-21.97,-26.70,-30.01,-49.70,-46.10
2022/07/14 04:37:31+0000,-38.89,-23.56,-26.74,-35.61,-48.90,-45.72
2022/07/14 04:38:23+0000,-38.74,-20.85,-26.87,-32.79,-48.37,-46.09
2022/07/14 04:39:15+0000,-39.05,-19.20,-27.02,-30.76,-49.14,-45.87
2022/07/14 04:40:08+0000,-40.44,-20.75,-28.96,-29.69,-48.55,-45.94
2022/07/14 04:41:10+0000,-38.94,-21.18,-26.15,-31.32,-49.35,-45.88
2022/07/14 04:42:02+0000,-38.95,-24.46,-26.91,-33.35,-49.64,-45.69
2022/07/14 04:42:54+0000,-40.45,-24.42,-26.22,-34.05,-48.89,-45.88